Location: Newark
(13.6797°N, 8.5297°E)
Time: 15:22:24
(UTC+00:00)

Courier 1B Rocket - Pass Details

Date: 20 January 2020
Orbit: 920 x 1202 km, 28.2° (Epoch: 25 February)

Event Time Altitude Azimuth Distance (km) Brightness Sun altitude
Rises 15:55:43 0° 303° (WNW) 3,606 8.4 17.9°
Reaches altitude 10° 15:58:58 10° 317° (NW) 2,632 7.5 17.2°
Maximum altitude 16:03:49 23° 8° (N) 1,849 6.3 16.2°
Drops below altitude 10° 16:08:38 10° 59° (ENE) 2,603 6.7 15.1°
Sets 16:11:49 0° 74° (ENE) 3,556 7.3 14.4°
